Change the Weather History Date:

Monday, September 9, 2013

  Actual Average (KFWA) Record (KFWA)
Temperature  
Mean Temperature 76 °F 67 °F  
Max Temperature 91 °F 79 °F 96 °F (1983)
Min Temperature 60 °F 55 °F 40 °F (1944)
Degree Days  
Heating Degree Days 0 2  
Month to date heating degree days 11  
Since 1 July heating degree days 23  
Cooling Degree Days 10 4  
Month to date cooling degree days 40  
Year to date cooling degree days 757  
Growing Degree Days 26 (Base 50)    
Moisture  
Dew Point 59 °F    
Average Humidity 64    
Maximum Humidity 83    
Minimum Humidity 38    
Precipitation  
Precipitation 0.00 in 0.10 in 1.95 in (1992)
Month to date precipitation 0.87  
Year to date precipitation 27.71  
Snow  
Snow 0.00 in 0.00 in 0.00 in (2002)
Month to date snowfall 0.0  
Since 1 July snowfall 0.0  
Since 1 September snowfall 0.0  
Snow Depth -    
Sea Level Pressure  
Sea Level Pressure 29.99 in    
Wind  
Wind Speed 4 mph (SSE)    
Max Wind Speed 12 mph    
Max Gust Speed 17 mph    
T = Trace of Precipitation, MM = Missing Value Source: NWS Daily Summary

Daily Weather History Graph

Daily Weather History Graph

Search for Another Location

Airport or City:

Trip Planner

Search our weather history database for the weather conditions in past years. The results will help you decide how hot, cold, wet, or windy it might be!

Date:

Astronomy

Sep. 09, 2013 Rise Set
Actual Time 7:14 AM EDT 7:59 PM EDT
Civil Twilight 6:46 AM EDT 8:27 PM EDT
Nautical Twilight 6:13 AM EDT 9:00 PM EDT
Astronomical Twilight 5:39 AM EDT 9:34 PM EDT
Moon 11:38 AM EDT (9/9) 10:11 PM EDT (9/9)
Length of Visible Light 13h 40m
Length of Day
12h 44m
Waxing Crescent, 19% of the Moon is Illuminated
Sep 9
Waxing Crescent
Sep 12
First Quarter
Sep 19
Full
Sep 26
Last Quarter
Oct 4
New

Hourly Weather History & Observations

Time (EDT) Temp. Heat Index Dew Point Humidity Pressure Visibility Wind Dir Wind Speed Gust Speed Precip Events Conditions
12:15 AM 62.6 °F - 55.4 °F 77% 30.05 in - ESE 3.5 mph - N/A   Clear
12:35 AM 62.6 °F - 55.4 °F 77% 30.05 in - ESE 4.6 mph - N/A   Clear
12:55 AM 62.6 °F - 53.6 °F 72% 30.06 in - East 3.5 mph - N/A   Clear
1:15 AM 62.6 °F - 53.6 °F 72% 30.05 in - ESE 3.5 mph - N/A   Clear
1:35 AM 60.8 °F - 53.6 °F 77% 30.06 in - East 3.5 mph - N/A   Clear
1:55 AM 62.6 °F - 53.6 °F 72% 30.06 in - Calm Calm - N/A   Mostly Cloudy
2:15 AM 62.6 °F - 53.6 °F 72% 30.06 in - Calm Calm - N/A   Mostly Cloudy
2:35 AM 62.6 °F - 53.6 °F 72% 30.06 in - East 3.5 mph - N/A   Overcast
2:55 AM 62.6 °F - 51.8 °F 68% 30.05 in - East 4.6 mph - N/A   Overcast
3:15 AM 62.6 °F - 51.8 °F 68% 30.05 in - East 4.6 mph - N/A   Overcast
3:35 AM 62.6 °F - 50.0 °F 63% 30.05 in - East 4.6 mph - N/A   Overcast
3:55 AM 62.6 °F - 50.0 °F 63% 30.04 in - East 4.6 mph - N/A   Overcast
4:15 AM 62.6 °F - 50.0 °F 63% 30.03 in - East 3.5 mph - N/A   Mostly Cloudy
4:35 AM 62.6 °F - 50.0 °F 63% 30.03 in - Calm Calm - N/A   Mostly Cloudy
4:55 AM 62.6 °F - 50.0 °F 63% 30.03 in - ESE 3.5 mph - N/A   Scattered Clouds
5:15 AM 60.8 °F - 50.0 °F 68% 30.02 in - East 4.6 mph - N/A   Scattered Clouds
5:35 AM 60.8 °F - 51.8 °F 72% 30.02 in - East 5.8 mph - N/A   Clear
5:55 AM 60.8 °F - 51.8 °F 72% 30.02 in - East 4.6 mph - N/A   Clear
6:15 AM 60.8 °F - 51.8 °F 72% 30.01 in - East 3.5 mph - N/A   Clear
6:35 AM 60.8 °F - 51.8 °F 72% 30.02 in - Calm Calm - N/A   Clear
6:55 AM 60.8 °F - 51.8 °F 72% 30.02 in - Calm Calm - N/A   Clear
7:15 AM 60.8 °F - 53.6 °F 77% 30.03 in - ENE 3.5 mph - N/A   Scattered Clouds
7:35 AM 60.8 °F - 53.6 °F 77% 30.03 in - East 3.5 mph - N/A   Mostly Cloudy
7:55 AM 60.8 °F - 53.6 °F 77% 30.03 in - East 4.6 mph - N/A   Overcast
8:15 AM 60.8 °F - 53.6 °F 77% 30.03 in - East 4.6 mph - N/A   Mostly Cloudy
8:35 AM 60.8 °F - 53.6 °F 77% 30.04 in - East 4.6 mph - N/A   Scattered Clouds
8:55 AM 60.8 °F - 55.4 °F 82% 30.04 in - East 5.8 mph - N/A   Clear
9:15 AM 60.8 °F - 55.4 °F 82% 30.03 in - ESE 4.6 mph - N/A   Clear
9:35 AM 62.6 °F - 55.4 °F 77% 30.03 in - SE 3.5 mph - N/A   Clear
9:55 AM 62.6 °F - 55.4 °F 77% 30.04 in - Calm Calm - N/A   Clear
10:15 AM 62.6 °F - 55.4 °F 77% 30.02 in - Calm Calm - N/A   Scattered Clouds
10:35 AM 62.6 °F - 57.2 °F 82% 30.04 in - Calm Calm - N/A   Scattered Clouds
10:55 AM 64.4 °F - 59.0 °F 83% 30.04 in - Calm Calm - N/A   Clear
11:15 AM 66.2 °F - 59.0 °F 78% 30.04 in - Calm Calm - N/A   Clear
11:35 AM 69.8 °F - 60.8 °F 73% 30.03 in - Calm Calm - N/A   Clear
11:55 AM 71.6 °F - 60.8 °F 69% 30.04 in - South 3.5 mph - N/A   Clear
12:15 PM 73.4 °F - 62.6 °F 69% 30.03 in - South 5.8 mph - N/A   Clear
12:35 PM 75.2 °F - 62.6 °F 65% 30.02 in - South 4.6 mph - N/A   Clear
12:55 PM 78.8 °F - 62.6 °F 57% 30.00 in - SSW 4.6 mph - N/A   Clear
1:15 PM 78.8 °F - 62.6 °F 57% 30.00 in - SSW 5.8 mph - N/A   Clear
1:35 PM 80.6 °F 81.8 °F 62.6 °F 54% 29.99 in - SSW 8.1 mph - N/A   Clear
1:55 PM 82.4 °F 83.9 °F 64.4 °F 54% 29.99 in - SW 5.8 mph - N/A   Clear
2:15 PM 84.2 °F 85.6 °F 64.4 °F 51% 29.98 in - SSW 4.6 mph - N/A   Clear
2:35 PM 86.0 °F 87.3 °F 64.4 °F 48% 29.98 in - SSW 3.5 mph - N/A   Clear
2:55 PM 87.8 °F 89.4 °F 64.4 °F 46% 29.97 in - South 8.1 mph - N/A   Clear
3:15 PM 87.8 °F 88.5 °F 62.6 °F 43% 29.96 in - SSW 6.9 mph - N/A   Clear
3:55 PM 89.6 °F 90.1 °F 62.6 °F 40% 29.95 in - SSW 11.5 mph 17.3 mph N/A   Scattered Clouds
4:15 PM 89.6 °F 90.1 °F 62.6 °F 40% 29.93 in - SW 8.1 mph 17.3 mph N/A   Clear
4:35 PM 89.6 °F 91.1 °F 64.4 °F 43% 29.93 in - SW 6.9 mph - N/A   Clear
4:55 PM 89.6 °F 91.1 °F 64.4 °F 43% 29.93 in - SSW 6.9 mph - N/A   Clear
5:15 PM 91.4 °F 92.1 °F 62.6 °F 38% 29.92 in - SW 9.2 mph - N/A   Clear
5:35 PM 89.6 °F 90.1 °F 62.6 °F 40% 29.92 in - SW 8.1 mph - N/A   Clear
5:55 PM 89.6 °F 90.1 °F 62.6 °F 40% 29.92 in - SW 8.1 mph 17.3 mph N/A   Clear
6:15 PM 89.6 °F 91.1 °F 64.4 °F 43% 29.92 in - SSW 6.9 mph - N/A   Clear
6:35 PM 89.6 °F 91.1 °F 64.4 °F 43% 29.92 in - SSW 5.8 mph - N/A   Clear
6:55 PM 87.8 °F 89.4 °F 64.4 °F 46% 29.92 in - SSW 4.6 mph - N/A   Clear
7:15 PM 87.8 °F 89.4 °F 64.4 °F 46% 29.92 in - SW 5.8 mph - N/A   Clear
7:35 PM 86.0 °F 87.3 °F 64.4 °F 48% 29.92 in - Calm Calm - N/A   Clear
7:55 PM 84.2 °F 86.6 °F 66.2 °F 55% 29.92 in - Calm Calm - N/A   Clear
8:15 PM 80.6 °F 83.2 °F 68.0 °F 65% 29.93 in - Calm Calm - N/A   Clear
8:35 PM 78.8 °F - 68.0 °F 69% 29.93 in - Calm Calm - N/A   Clear
8:55 PM 78.8 °F - 68.0 °F 69% 29.93 in - Calm Calm - N/A   Clear
9:15 PM 78.8 °F - 66.2 °F 65% 29.93 in - Calm Calm - N/A   Clear
9:35 PM 78.8 °F - 68.0 °F 69% 29.95 in - Calm Calm - N/A   Clear
9:55 PM 78.8 °F - 66.2 °F 65% 29.94 in - Calm Calm - N/A   Clear
10:15 PM 80.6 °F 83.2 °F 68.0 °F 65% 29.95 in - SSW 3.5 mph - N/A   Clear
10:35 PM 80.6 °F 83.2 °F 68.0 °F 65% 29.95 in - SSW 4.6 mph - N/A   Clear
10:55 PM 80.6 °F 83.2 °F 68.0 °F 65% 29.95 in - SSW 5.8 mph - N/A   Clear
11:15 PM 80.6 °F 83.2 °F 68.0 °F 65% 29.96 in - SSW 6.9 mph - N/A   Clear
11:35 PM 80.6 °F 83.2 °F 68.0 °F 65% 29.96 in - SSW 6.9 mph - N/A   Clear
11:55 PM 80.6 °F 83.2 °F 68.0 °F 65% 29.96 in - SSW 6.9 mph - N/A   Clear